Hourly Weather Roundup
Issued by NWS Central Illinois

Home | Current Version | Previous Version | Text Only | Print | Product List | Glossary On
Versions: 1 2 3 4 5 6 7 8 9 10 11 12 13 14 15 16 17 18 19 20 21 22 23 24 25 26 27 28 29 30 31 32 33 34 35 36 37 38 39 40 41 42 43 44 45 46 47 48 49 50
000
NZUS43 KILX 171710
HWRILX

Area Weather Roundup
National Weather Service Lincoln IL
1100 AM CST FRI NOV 17 2017

NOTE:  "FAIR" indicates few or no clouds below 12,000 feet, with
       no sigificant weather and/or obstructions to visibility.


CITY           SKY/WX    TMP DP  RH WIND       PRES   REMARKS
Bloomington    CLOUDY    35  32  88 S21       29.98F WCI  24
Champaign      CLOUDY    36  32  85 S17       30.03F FOG     WCI  26
Danville       CLOUDY    38  32  79 SE12      30.03F WCI  30
Decatur        CLOUDY    37  34  89 SE14      30.01F FOG     WCI  28
Effingham      CLOUDY    37  37 100 SE12G17   30.08F FOG     WCI  29
Flora          CLOUDY    39  38  95 SE10      30.09F FOG     WCI  32
Galesburg      CLOUDY    38  36  92 SE8G16    29.89F WCI  32
Jacksonville   CLOUDY    41  36  82 SE13G20   29.92F WCI  33
Lacon          CLOUDY    38  32  80 S13G23    29.93F WCI  30
Lawrenceville  CLOUDY    38  35  89 S13       30.12F FOG     WCI  30
Litchfield     CLOUDY    40  36  86 SE16      29.97F WCI  31
$$


CITY           SKY/WX    TMP DP  RH WIND       PRES   REMARKS
Lincoln        CLOUDY    37  35  92 S18       29.97F FOG     WCI  27
Macomb         CLOUDY    38  35  91 SE17G23   29.90F FOG     WCI  28
Mattoon        CLOUDY    35  33  92 S12       30.05F FOG     WCI  27
Mt Carmel AP   CLOUDY    38  35  91 SE10      30.11F FOG     WCI  30
Olney-Noble AP CLOUDY    37  36  93 SE10      30.09F FOG     WCI  30
Paris AP       CLOUDY    35  33  90 SE14      30.08F WCI  26
Peoria         LGT RAIN  38  34  85 S17G30    29.95F FOG     WCI  28
Pontiac        CLOUDY    37  35  93 S16G22    30.00F WCI  27
Rantoul        CLOUDY    36  33  91 S15       30.03F FOG     WCI  26
Robinson       CLOUDY    36  34  90 SE10      30.12F WCI  29
Springfield    CLOUDY    40  36  86 SE21      29.96F WCI  30
Taylorville    CLOUDY    37  34  91 SE15G22   29.99F FOG     WCI  28
$$

...REGIONAL REPORTS...


CITY           SKY/WX    TMP DP  RH WIND       PRES   REMARKS
Chicago O`Hare CLOUDY    40  31  70 S18       29.97F WCI  31
Kankakee       CLOUDY    40  32  73 SE17G24   30.03F WCI  31
Moline         CLOUDY    39  34  82 SE14      29.85F WCI  31
Mount Sterling CLOUDY    39  36  89 SE17      29.87F FOG     WCI  29
Mount Vernon   CLOUDY    40  38  93 SE6       30.06F
Pittsfield     CLOUDY    42  38  85 SE15      29.90F FOG     WCI  34
Quincy         CLOUDY    43  37  79 SE16G23   29.85F
Rockford       CLOUDY    37  30  75 S21       29.95F WCI  26
$$


CITY           SKY/WX    TMP DP  RH WIND       PRES   REMARKS
Burlington     CLOUDY    39  37  92 SE14G21   29.84F FOG     WCI  31
Cedar Rapids   CLOUDY    38  35  89 S18G25    29.77F FOG     WCI  28
Des Moines     DRIZZLE   46  43  89 S16       29.69F FOG
Kirksville     CLOUDY    49  44  83 S20G25    29.75F
Ottumwa        CLOUDY    44  38  79 SE17      29.75F
St Louis       CLOUDY    45  38  76 SE13G24   29.95F
$$


CITY           SKY/WX    TMP DP  RH WIND       PRES   REMARKS
Terre Haute    CLOUDY    38  32  79 S13       30.10F WCI  30
Evansville     CLOUDY    39  37  92 SE10      30.14F FOG     WCI  32
Indianapolis   CLOUDY    40  32  73 S13       30.11F WCI  32
Lafayette      CLOUDY    41  33  73 SE9G17    30.07F
Madison        CLOUDY    37  29  72 S21G28    29.86F WCI  26
Milwaukee      CLOUDY    40  32  73 S18       29.96F WCI  31
$$





USA.gov is the U.S. government's official web portal to all federal, state and local government web resources and services.